Regional Weather Roundup
Issued by NWS Newport/Morehead, NC

Current Version | Previous Version | Text Only | Print | Product List | Glossary On
Versions: 1 2 3 4 5 6 7 8 9 10 11 12 13 14 15 16 17 18 19 20 21 22 23 24 25 26 27 28 29 30 31 32 33 34 35 36 37 38 39 40 41 42 43 44 45 46 47 48 49 50
000 ASUS42 KMHX 292122 RWRMHX WEATHER ROUNDUP FOR EASTERN NORTH CAROLINA NATIONAL WEATHER SERVICE NEWPORT/MOREHEAD CITY NC 400 PM EST THU JAN 29 2015 NOTE: "FAIR" INDICATES FEW OR NO CLOUDS BELOW 12,000 FEET WITH NO SIGNIFICANT WEATHER AND/OR OBSTRUCTIONS TO VISIBILITY NCZ015>017-031-032-045>047-102-103-292200- NORTH COAST CITY SKY/WX TMP DP RH WIND PRES REMARKS EDENTON CLOUDY 42 23 46 S7 30.20F ELIZABETH CITY CLOUDY 40 12 32 SW6 30.22F KITTY HAWK CLOUDY 38 22 51 CALM 30.21F MANTEO CLOUDY 39 23 52 S6 30.23F $$ NCZ045>047-081-094-103-104-292200- CENTRAL COAST CITY SKY/WX TMP DP RH WIND PRES REMARKS FRISCO CLOUDY 39 24 55 NW6 30.24F SWANQUARTER NOT AVBL $$ NCZ095-097-098-100-101-292200- SOUTHERN COAST CITY SKY/WX TMP DP RH WIND PRES REMARKS BEAUFORT PTSUNNY 43 26 51 SW8 30.25S CEDAR ISLAND NOT AVBL JACKSONVILLE CLOUDY 47 20 34 S8 30.22F PINEY ISLAND N/A N/A N/A N/A MISG 30.24S WILMINGTON PTSUNNY 48 26 42 S9 30.23F $$ NCZ011>013-027>030-043-044-078>080-089-090>093-098-292200- COASTAL PLAIN CITY SKY/WX TMP DP RH WIND PRES REMARKS AHOSKIE PTSUNNY 42 14 32 S5 30.21S CLINTON MOSUNNY 51 19 27 S6 30.21F ELIZABETHTOWN MOSUNNY 52 16 24 SW6 30.21F GOLDSBORO MOSUNNY 49 18 29 S5 30.19F GREENVILLE PTSUNNY 46 16 29 SW8 30.21F HAVELOCK PTSUNNY 46 22 38 S8 30.24F KENANSVILLE PTSUNNY 50 13 23 SW3 30.21F KINSTON MOSUNNY 48 16 27 SW8 30.22F NEW BERN CLOUDY 49 18 29 SE3 30.23F RICHLANDS CLOUDY 48 18 29 S7 30.22F ROCKY MOUNT MOSUNNY 47 16 29 S9 30.19F WASHINGTON CLOUDY 46 15 29 SW5 30.21F WHITEVILLE PTSUNNY 51 20 29 S7 30.21F $$ AMZ130-135-150-152-154-156-158-170-250-252-270-ANZ085-086-088-633-658-670-292200- MARINE OBSERVATIONS STATION/POSITION TIME TEMP WIND PRES WAVE SWELL AIR SEA DIR/SP/G HT/PER HT/PER (UTC) (F) (DEG/KT/KT) (MB) (FT/S) (FT/S) CHESAPEAKE LIGHT 2100 36 180/ 11/ 12 1022.9 64 E VA BEACH 2100 40 49 220/ 4/ 8 1022.7 4/ 7 3/ 7 DUCK 2100 38 44 200/ 5/ 6 1022.4 2 E DUCK 2100 42 N/A 3/13 2/13 10 NE DUCK 2100 45 N/A 4/11 2/11 OREGON INLET 2100 38 42 210/ 6/ 8 1023.6 13E OREGON INLT 2100 43 N/A 5/11 3/11 HATTERAS CG 2100 39 44 270/ 4/ 6 1024.2 DIAMOND BUOY 2100 42 71 270/ 4/ 8 1023.9 4/ 9 3/ 9 17 S OCRACOKE NOT AVBL CAPE LOOKOUT 2100 42 230/ 5/ 6 1024.0 BEAUFORT LAB 2100 43 46 210/ 5/ 6 1023.0 27 SE WRIGHTSVLE NOT AVBL 5 SE WRIGHTSVLE 2100 48 52 210/ 8/ 8 1023.8 225 S CAPE HAT 2020 57 72 320/ 6/ 10 1024.2 6/ 9 7/ 9 41 SE CHARLESTON 2100 57 68 200/ 8/ 10 1023.7 3/ 8 3/ 8 $$

USA.gov is the U.S. government's official web portal to all federal, state and local government web resources and services.